When you browse on this site, cookies collect data to enhance your experience and personalize the content and advertising you see.
Visit our Privacy Policy to learn more. By continuing to use the site, you agree to this use of cookies and data.
  • In Switzerland
  • List of Countries
  • For 7 days
  • Water Temperature
  • Weather Map
  • Weather Widgets
  • user-avatar
    Login

    Hourly Weather Gorodechno

    Today, 25 January, Saturday

    Time Temperature Precipitation Wind Pressure Humidity
    00:00 -2°C° 0.3 mm 6 mps 738 mmHg 91%
    01:00 -2°C° 0.3 mm 6 mps 738 mmHg 91%
    02:00 -2°C° 0.3 mm 6 mps 738 mmHg 91%
    03:00 -2°C° 0 mm 6 mps 738 mmHg 91%
    04:00 -1°C° 0 mm 6 mps 738 mmHg 91%
    05:00 -1°C° 0 mm 6 mps 737 mmHg 90%
    06:00 -1°C° 0 mm 6 mps 738 mmHg 90%
    07:00 -1°C° 0 mm 6 mps 738 mmHg 89%
    08:00 -1°C° 0 mm 7 mps 738 mmHg 88%
    09:00 -1°C° 0.1 mm 7 mps 738 mmHg 88%
    10:00 -1°C° 0.1 mm 7 mps 738 mmHg 87%
    11:00 0°C° 0.1 mm 7 mps 738 mmHg 86%
    12:00 0°C° 0.1 mm 7 mps 739 mmHg 84%
    13:00 +1°C° 0.1 mm 6 mps 739 mmHg 82%
    14:00 +2°C° 0.1 mm 6 mps 739 mmHg 79%
    15:00 +1°C° 0 mm 6 mps 739 mmHg 80%
    16:00 +1°C° 0 mm 5 mps 739 mmHg 81%
    17:00 +1°C° 0 mm 5 mps 740 mmHg 82%
    18:00 0°C° 0 mm 4 mps 740 mmHg 83%
    19:00 -1°C° 0 mm 4 mps 740 mmHg 85%
    20:00 0°C° 0 mm 3 mps 740 mmHg 87%
    21:00 0°C° 0 mm 3 mps 741 mmHg 88%
    22:00 -1°C° 0 mm 3 mps 741 mmHg 89%
    23:00 -1°C° 0 mm 3 mps 742 mmHg 90%

    Tomorrow, 26 January, Sunday

    Time Temperature Precipitation Wind Pressure Humidity
    00:00 -1°C° 0 mm 3 mps 742 mmHg 91%
    01:00 -1°C° 0 mm 3 mps 742 mmHg 93%
    02:00 -1°C° 0 mm 3 mps 742 mmHg 94%
    03:00 -1°C° 0 mm 2 mps 742 mmHg 94%
    04:00 -1°C° 0 mm 2 mps 742 mmHg 95%
    05:00 -1°C° 0 mm 2 mps 742 mmHg 95%
    06:00 -1°C° 0 mm 3 mps 743 mmHg 95%
    07:00 -1°C° 0 mm 3 mps 743 mmHg 94%
    08:00 -1°C° 0 mm 3 mps 743 mmHg 94%
    09:00 0°C° 0 mm 3 mps 743 mmHg 91%
    10:00 -1°C° 0 mm 4 mps 743 mmHg 88%
    11:00 0°C° 0 mm 4 mps 743 mmHg 85%
    12:00 0°C° 0 mm 4 mps 743 mmHg 83%
    13:00 0°C° 0 mm 4 mps 743 mmHg 81%
    14:00 +1°C° 0 mm 4 mps 743 mmHg 80%
    15:00 0°C° 0 mm 4 mps 743 mmHg 82%
    16:00 +1°C° 0 mm 3 mps 743 mmHg 85%
    17:00 +1°C° 0 mm 3 mps 743 mmHg 87%
    18:00 +1°C° 0 mm 3 mps 743 mmHg 89%
    19:00 +1°C° 0 mm 3 mps 743 mmHg 90%
    20:00 +1°C° 0 mm 3 mps 743 mmHg 92%
    21:00 +1°C° 0 mm 3 mps 743 mmHg 92%
    22:00 +1°C° 0 mm 3 mps 743 mmHg 92%
    23:00 +1°C° 0 mm 3 mps 743 mmHg 92%

    Day after tomorrow, 27 January, Monday

    Time Temperature Precipitation Wind Pressure Humidity
    00:00 +1°C° 0 mm 3 mps 742 mmHg 91%
    01:00 +1°C° 0 mm 3 mps 742 mmHg 90%
    02:00 +1°C° 0 mm 3 mps 742 mmHg 89%
    03:00 0°C° 0 mm 3 mps 741 mmHg 89%
    04:00 0°C° 0 mm 3 mps 741 mmHg 89%
    05:00 0°C° 0 mm 3 mps 741 mmHg 88%
    06:00 +1°C° 0 mm 2 mps 741 mmHg 87%
    07:00 -1°C° 0 mm 2 mps 741 mmHg 86%
    08:00 -1°C° 0 mm 2 mps 740 mmHg 85%
    09:00 -1°C° 0 mm 2 mps 740 mmHg 81%
    10:00 +1°C° 0 mm 2 mps 740 mmHg 77%
    11:00 0°C° 0 mm 3 mps 740 mmHg 74%
    12:00 +1°C° 0 mm 3 mps 740 mmHg 73%
    13:00 +1°C° 0 mm 3 mps 740 mmHg 72%
    14:00 +1°C° 0 mm 3 mps 739 mmHg 72%
    15:00 +2°C° 0.1 mm 2 mps 739 mmHg 80%
    16:00 +1°C° 0.1 mm 2 mps 739 mmHg 88%
    17:00 -1°C° 0.1 mm 2 mps 738 mmHg 96%
    18:00 -1°C° 0.3 mm 2 mps 738 mmHg 95%
    19:00 -1°C° 0.3 mm 2 mps 738 mmHg 95%
    20:00 -1°C° 0.3 mm 2 mps 738 mmHg 94%
    21:00 -1°C° 0.1 mm 2 mps 738 mmHg 92%
    22:00 -1°C° 0.1 mm 2 mps 738 mmHg 90%
    23:00 -1°C° 0.1 mm 3 mps 737 mmHg 88%

    28 January, Tuesday

    Time Temperature Precipitation Wind Pressure Humidity
    00:00 -1°C° 0 mm 3 mps 737 mmHg 88%
    01:00 -1°C° 0 mm 3 mps 737 mmHg 89%
    02:00 -1°C° 0 mm 3 mps 736 mmHg 90%
    03:00 -1°C° 0.1 mm 3 mps 736 mmHg 91%
    04:00 0°C° 0.1 mm 3 mps 736 mmHg 93%
    05:00 0°C° 0.1 mm 3 mps 735 mmHg 95%
    06:00 0°C° 0.1 mm 3 mps 735 mmHg 95%
    07:00 +1°C° 0.1 mm 3 mps 735 mmHg 96%
    08:00 +1°C° 0.1 mm 3 mps 735 mmHg 96%
    09:00 +1°C° 0 mm 3 mps 735 mmHg 94%
    10:00 +1°C° 0 mm 3 mps 735 mmHg 92%
    11:00 +1°C° 0 mm 4 mps 735 mmHg 90%
    12:00 +1°C° 0 mm 4 mps 734 mmHg 88%
    13:00 +1°C° 0 mm 4 mps 734 mmHg 85%
    14:00 +3°C° 0 mm 4 mps 733 mmHg 82%
    15:00 +1°C° 0 mm 4 mps 733 mmHg 83%
    16:00 +1°C° 0 mm 4 mps 733 mmHg 85%
    17:00 0°C° 0 mm 4 mps 732 mmHg 86%
    18:00 0°C° 0 mm 4 mps 732 mmHg 86%
    19:00 0°C° 0 mm 4 mps 732 mmHg 86%
    20:00 0°C° 0 mm 4 mps 732 mmHg 86%
    21:00 0°C° 0 mm 4 mps 731 mmHg 87%
    22:00 0°C° 0 mm 4 mps 731 mmHg 88%
    23:00 0°C° 0 mm 4 mps 731 mmHg 89%

    29 January, Wednesday

    Time Temperature Precipitation Wind Pressure Humidity
    00:00 0°C° 0 mm 4 mps 730 mmHg 89%
    01:00 0°C° 0 mm 4 mps 730 mmHg 90%
    02:00 0°C° 0 mm 5 mps 729 mmHg 90%
    03:00 0°C° 0 mm 5 mps 728 mmHg 90%
    04:00 0°C° 0 mm 5 mps 728 mmHg 91%
    05:00 -1°C° 0 mm 5 mps 727 mmHg 91%
    06:00 -1°C° 0.2 mm 5 mps 727 mmHg 93%
    07:00 -1°C° 0.2 mm 5 mps 726 mmHg 94%
    08:00 -1°C° 0.2 mm 4 mps 726 mmHg 96%
    09:00 -1°C° 0.5 mm 4 mps 726 mmHg 96%
    10:00 0°C° 0.5 mm 4 mps 725 mmHg 96%
    11:00 0°C° 0.5 mm 4 mps 725 mmHg 96%
    12:00 +1°C° 0.5 mm 3 mps 725 mmHg 97%
    13:00 +1°C° 0.5 mm 3 mps 725 mmHg 97%
    14:00 +2°C° 0.5 mm 2 mps 725 mmHg 97%
    15:00 +1°C° 0.5 mm 3 mps 725 mmHg 97%
    16:00 0°C° 0.5 mm 4 mps 725 mmHg 97%
    17:00 0°C° 0.5 mm 5 mps 726 mmHg 97%
    18:00 -1°C° 0.3 mm 5 mps 726 mmHg 96%
    19:00 -2°C° 0.3 mm 6 mps 726 mmHg 96%
    20:00 -2°C° 0.3 mm 6 mps 727 mmHg 95%
    21:00 -2°C° 0.1 mm 6 mps 727 mmHg 93%
    22:00 -2°C° 0.1 mm 6 mps 727 mmHg 90%
    23:00 -2°C° 0.1 mm 5 mps 727 mmHg 87%

    30 January, Thursday

    Time Temperature Precipitation Wind Pressure Humidity
    00:00 -2°C° 0 mm 5 mps 728 mmHg 87%
    01:00 -2°C° 0 mm 5 mps 728 mmHg 87%
    02:00 -4°C° 0 mm 5 mps 728 mmHg 86%
    03:00 -4°C° 0 mm 5 mps 728 mmHg 85%
    04:00 -4°C° 0 mm 5 mps 728 mmHg 84%
    05:00 -4°C° 0 mm 5 mps 729 mmHg 83%
    06:00 -4°C° 0 mm 5 mps 729 mmHg 82%
    07:00 -4°C° 0 mm 5 mps 729 mmHg 82%
    08:00 -4°C° 0 mm 5 mps 730 mmHg 81%
    09:00 -2°C° 0 mm 5 mps 730 mmHg 82%
    10:00 -3°C° 0 mm 6 mps 731 mmHg 83%
    11:00 -2°C° 0 mm 6 mps 731 mmHg 84%
    12:00 -2°C° 0 mm 6 mps 731 mmHg 83%
    13:00 -2°C° 0 mm 6 mps 731 mmHg 83%
    14:00 -2°C° 0 mm 6 mps 731 mmHg 82%
    15:00 -1°C° 0 mm 5 mps 731 mmHg 86%
    16:00 -1°C° 0 mm 5 mps 732 mmHg 91%
    17:00 -1°C° 0 mm 5 mps 732 mmHg 95%
    18:00 -1°C° 0.2 mm 5 mps 732 mmHg 94%
    19:00 -1°C° 0.2 mm 5 mps 732 mmHg 94%
    20:00 -2°C° 0.2 mm 6 mps 732 mmHg 94%
    21:00 -1°C° 0.3 mm 5 mps 732 mmHg 95%
    22:00 -1°C° 0.3 mm 5 mps 732 mmHg 95%
    23:00 -1°C° 0.3 mm 4 mps 732 mmHg 96%
    Show more